timestamp,surface_pressure_avg,surface_temp_avg,battery_voltage,lat,long
2022-10-17 00:09:00+00:00,247.0098,13.39,12.01,47.84626,-54.09684
2022-10-17 00:19:00+00:00,251.433,13.39,12.01,47.84626,-54.09684
2022-10-17 00:29:00+00:00,251.4481,13.4,12.01,47.84626,-54.09684
2022-10-17 00:39:00+00:00,249.3864,13.4,12.01,47.84626,-54.09684
2022-10-17 00:49:00+00:00,249.9881,13.4,12.01,47.84626,-54.09684
2022-10-17 00:59:00+00:00,253.7464,13.4,12.01,47.84626,-54.09684
2022-10-17 01:09:00+00:00,258.2981,13.4,12.01,47.84626,-54.09684
2022-10-17 01:19:00+00:00,261.3131,13.4,12.01,47.84626,-54.09684
2022-10-17 01:29:00+00:00,263.0098,13.4,12.01,47.84626,-54.09684
2022-10-17 01:39:00+00:00,263.2047,13.4,12.01,47.84626,-54.09684
2022-10-17 01:49:00+00:00,269.1814,13.4,12.01,47.84626,-54.09684
2022-10-17 01:59:00+00:00,275.7747,13.4,12.01,47.84626,-54.09684
2022-10-17 02:09:00+00:00,279.063,13.4,12.01,47.84626,-54.09684
2022-10-17 02:19:00+00:00,280.7631,13.4,12.01,47.84626,-54.09684
2022-10-17 02:29:00+00:00,286.5497,13.4,12.01,47.84626,-54.09684
2022-10-17 02:39:00+00:00,290.6014,13.4,12.01,47.84626,-54.09684
2022-10-17 02:49:00+00:00,289.7764,13.4,12.01,47.84626,-54.09684
2022-10-17 02:59:00+00:00,289.3113,13.4,12.01,47.84626,-54.09684
2022-10-17 03:09:00+00:00,293.8696,13.4,12.01,47.84626,-54.09684
2022-10-17 03:19:00+00:00,294.8664,13.4,12.01,47.84626,-54.09684
2022-10-17 03:29:00+00:00,293.8998,13.4,12.01,47.84626,-54.09684
2022-10-17 03:39:00+00:00,295.9447,13.4,12.01,47.84626,-54.09684
2022-10-17 03:49:00+00:00,298.1296,13.4,12.01,47.84626,-54.09684
2022-10-17 03:59:00+00:00,297.658,13.4,12.01,47.84626,-54.09684
2022-10-17 04:09:00+00:00,295.353,13.4,12.01,47.84626,-54.09684
2022-10-17 04:19:00+00:00,296.2814,13.37,12.01,47.84626,-54.09684
2022-10-17 04:29:00+00:00,296.4564,13.3,12.01,47.84626,-54.09684
2022-10-17 04:39:00+00:00,297.4564,13.3,12.01,47.84626,-54.09684
2022-10-17 04:49:00+00:00,298.2113,13.3,12.01,47.84626,-54.09684
2022-10-17 04:59:00+00:00,296.9963,13.3,12.01,47.84626,-54.09684
2022-10-17 05:09:00+00:00,297.7629,13.34,12.01,47.84626,-54.09684
2022-10-17 05:19:00+00:00,298.593,13.36,12.01,47.84626,-54.09684
2022-10-17 05:29:00+00:00,299.0914,13.38,12.01,47.84626,-54.09684
2022-10-17 05:39:00+00:00,296.0863,13.38,12.01,47.84626,-54.09684
2022-10-17 05:49:00+00:00,294.5247,13.38,12.01,47.84626,-54.09684
2022-10-17 05:59:00+00:00,292.2464,13.38,12.01,47.84626,-54.09684
2022-10-17 06:09:00+00:00,288.2713,13.38,12.01,47.84626,-54.09684
2022-10-17 06:19:00+00:00,284.7313,13.36,12.01,47.84626,-54.09684
2022-10-17 06:29:00+00:00,283.4047,13.36,12.01,47.84626,-54.09684
2022-10-17 06:39:00+00:00,279.6497,13.33,12.01,47.84626,-54.09684
2022-10-17 06:49:00+00:00,274.1164,13.3,12.01,47.84626,-54.09684
2022-10-17 06:59:00+00:00,268.3197,13.3,12.01,47.84626,-54.09684
2022-10-17 07:09:00+00:00,264.5564,13.3,12.01,47.84626,-54.09684
2022-10-17 07:19:00+00:00,258.8831,13.3,12.01,47.84626,-54.09684
2022-10-17 07:29:00+00:00,255.2598,13.3,12.01,47.84626,-54.09684
2022-10-17 07:39:00+00:00,249.3497,13.3,12.01,47.84626,-54.09684
2022-10-17 07:49:00+00:00,243.9814,13.3,12.01,47.84626,-54.09684
2022-10-17 07:59:00+00:00,240.0214,13.3,12.01,47.84626,-54.09684
2022-10-17 08:09:00+00:00,239.1864,13.3,12.01,47.84626,-54.09684
2022-10-17 08:19:00+00:00,235.1881,13.3,12.01,47.84626,-54.09684
2022-10-17 08:29:00+00:00,229.8148,13.3,12.01,47.84626,-54.09684
2022-10-17 08:39:00+00:00,227.8697,13.3,12.01,47.84626,-54.09684
2022-10-17 08:49:00+00:00,227.0898,13.3,12.01,47.84626,-54.09684
2022-10-17 08:59:00+00:00,223.3614,13.29,12.01,47.84626,-54.09684
2022-10-17 09:09:00+00:00,223.0748,13.28,12.01,47.84626,-54.09684
2022-10-17 09:19:00+00:00,225.3031,13.27,12.01,47.84626,-54.09684
2022-10-17 09:29:00+00:00,225.7598,13.27,12.01,47.84626,-54.09684
2022-10-17 09:39:00+00:00,224.2798,13.26,12.01,47.84626,-54.09684
2022-10-17 09:49:00+00:00,226.2164,13.25,12.01,47.84626,-54.09684
2022-10-17 09:59:00+00:00,227.9047,13.26,12.01,47.84626,-54.09684
2022-10-17 10:09:00+00:00,229.6664,13.24,12.01,47.84626,-54.09684
2022-10-17 10:19:00+00:00,228.0481,13.2,12.01,47.84626,-54.09684
2022-10-17 10:29:00+00:00,229.1314,13.2,12.01,47.84626,-54.09684
2022-10-17 10:39:00+00:00,231.7364,13.2,12.01,47.84626,-54.09684
2022-10-17 10:49:00+00:00,233.4464,13.2,12.01,47.84626,-54.09684
2022-10-17 10:59:00+00:00,235.1681,13.2,12.01,47.84626,-54.09684
2022-10-17 11:09:00+00:00,239.3464,13.2,12.01,47.84626,-54.09684
2022-10-17 11:19:00+00:00,242.6064,13.2,12.01,47.84626,-54.09684
2022-10-17 11:29:00+00:00,244.3114,13.2,12.01,47.84626,-54.09684
2022-10-17 11:39:00+00:00,246.1248,13.2,12.01,47.84626,-54.09684
2022-10-17 11:49:00+00:00,246.3414,13.2,12.01,47.84626,-54.09684
2022-10-17 11:59:00+00:00,246.5081,13.2,12.01,47.84626,-54.09684
2022-10-17 12:09:00+00:00,250.1498,13.2,12.01,47.84626,-54.09684
2022-10-17 12:19:00+00:00,252.1231,13.2,12.01,47.84626,-54.09684
2022-10-17 12:29:00+00:00,253.5164,13.2,12.01,47.84626,-54.09684
2022-10-17 12:39:00+00:00,256.8648,13.2,12.01,47.84626,-54.09684
2022-10-17 12:49:00+00:00,263.2381,13.21,12.01,47.84626,-54.09684
2022-10-17 12:59:00+00:00,265.64799999999997,13.23,12.01,47.84626,-54.09684
2022-10-17 13:09:00+00:00,267.2281,13.23,12.01,47.84626,-54.09684
2022-10-17 13:19:00+00:00,270.9497,13.22,12.01,47.84626,-54.09684
2022-10-17 13:29:00+00:00,276.248,13.22,12.01,47.84626,-54.09684
2022-10-17 13:39:00+00:00,279.1214,13.23,12.01,47.84626,-54.09684
2022-10-17 13:49:00+00:00,279.228,13.23,12.01,47.84626,-54.09684
2022-10-17 13:59:00+00:00,283.6346,13.25,12.01,47.84626,-54.09684
2022-10-17 14:09:00+00:00,286.9664,13.26,12.01,47.84626,-54.09684
2022-10-17 14:19:00+00:00,289.0464,13.26,12.01,47.84626,-54.09684
2022-10-17 14:29:00+00:00,295.283,13.26,12.01,47.84626,-54.09684
2022-10-17 14:39:00+00:00,305.863,13.26,12.01,47.84626,-54.09684
2022-10-17 14:49:00+00:00,307.9647,13.27,12.01,47.84626,-54.09684
2022-10-17 14:59:00+00:00,307.1097,13.27,12.01,47.84626,-54.09684
2022-10-17 15:09:00+00:00,315.1114,13.27,12.01,47.84626,-54.09684
2022-10-17 15:19:00+00:00,317.3497,13.27,12.01,47.84626,-54.09684
2022-10-17 15:29:00+00:00,306.5013,13.27,12.01,47.84626,-54.09684
2022-10-17 15:39:00+00:00,303.5063,13.28,12.01,47.84626,-54.09684
2022-10-17 15:49:00+00:00,307.3747,13.28,12.01,47.84626,-54.09684
2022-10-17 15:59:00+00:00,306.4113,13.28,12.01,47.84626,-54.09684
2022-10-17 16:09:00+00:00,301.7047,13.3,12.01,47.84626,-54.09684
2022-10-17 16:19:00+00:00,309.6347,13.3,12.01,47.84626,-54.09684
2022-10-17 16:29:00+00:00,317.298,13.3,12.01,47.84626,-54.09684
2022-10-17 16:39:00+00:00,321.348,13.3,12.01,47.84626,-54.09684
2022-10-17 16:49:00+00:00,323.5812,13.3,12.01,47.84626,-54.09684
2022-10-17 16:59:00+00:00,328.423,13.3,12.01,47.84626,-54.09684
2022-10-17 17:09:00+00:00,322.743,13.3,12.01,47.84626,-54.09684
2022-10-17 17:19:00+00:00,319.6913,13.3,12.01,47.84626,-54.09684
2022-10-17 17:29:00+00:00,320.7346,13.31,12.01,47.84626,-54.09684
2022-10-17 17:39:00+00:00,315.6047,13.3,12.01,47.84626,-54.09684
2022-10-17 17:49:00+00:00,309.8713,13.3,12.01,47.84626,-54.09684
2022-10-17 17:59:00+00:00,313.1764,13.3,12.01,47.84626,-54.09684
2022-10-17 18:09:00+00:00,319.3696,13.3,12.01,47.84626,-54.09684
2022-10-17 18:19:01+00:00,316.0847,13.3,12.09,47.84626,-54.09684
2022-10-17 18:29:01+00:00,312.5297,13.36,12.09,47.84626,-54.09684
2022-10-17 18:39:01+00:00,310.3846,13.39,12.09,47.84626,-54.09684
2022-10-17 18:49:01+00:00,304.6563,13.35,12.09,47.84626,-54.09684
2022-10-17 18:59:01+00:00,296.7214,13.4,12.09,47.84626,-54.09684
2022-10-17 19:09:01+00:00,295.0181,13.4,12.09,47.84626,-54.09684
2022-10-17 19:19:00+00:00,292.608,13.4,12.01,47.84626,-54.09684
2022-10-17 19:29:00+00:00,284.6447,13.32,12.01,47.84626,-54.09684
2022-10-17 19:39:00+00:00,278.5547,13.33,12.01,47.84626,-54.09684
2022-10-17 19:49:00+00:00,280.4847,13.39,12.01,47.84626,-54.09684
2022-10-17 19:59:00+00:00,279.2347,13.4,12.01,47.84626,-54.09684
2022-10-17 20:09:00+00:00,271.1697,13.4,12.01,47.84626,-54.09684
2022-10-17 20:19:00+00:00,263.3781,13.4,12.01,47.84626,-54.09684
2022-10-17 20:29:00+00:00,258.5381,13.4,12.01,47.84626,-54.09684
2022-10-17 20:39:00+00:00,251.9931,13.4,12.01,47.84626,-54.09684
2022-10-17 20:49:00+00:00,249.9281,13.46,12.01,47.84626,-54.09684
2022-10-17 20:59:00+00:00,252.533,13.48,12.01,47.84626,-54.09684
2022-10-17 21:09:00+00:00,251.1264,13.41,12.01,47.84626,-54.09684
2022-10-17 21:19:00+00:00,246.1947,13.4,12.01,47.84626,-54.09684
2022-10-17 21:29:00+00:00,245.3964,13.4,12.01,47.84626,-54.09684
2022-10-17 21:39:00+00:00,242.2381,13.44,12.01,47.84626,-54.09684
2022-10-17 21:49:00+00:00,235.8798,13.45,12.01,47.84626,-54.09684
2022-10-17 21:59:00+00:00,235.7181,13.46,12.01,47.84626,-54.09684
2022-10-17 22:09:00+00:00,236.9581,13.46,12.01,47.84626,-54.09684
2022-10-17 22:19:00+00:00,235.4164,13.47,12.01,47.84626,-54.09684
2022-10-17 22:29:00+00:00,234.7798,13.46,12.01,47.84626,-54.09684
2022-10-17 22:39:00+00:00,236.3181,13.46,12.01,47.84626,-54.09684
2022-10-17 22:49:00+00:00,238.5164,13.46,12.01,47.84626,-54.09684
2022-10-17 22:59:00+00:00,239.5248,13.42,12.01,47.84626,-54.09684
2022-10-17 23:09:00+00:00,241.7881,13.4,12.01,47.84626,-54.09684
2022-10-17 23:19:00+00:00,240.2631,13.4,12.01,47.84626,-54.09684
2022-10-17 23:29:00+00:00,240.6315,13.4,12.01,47.84626,-54.09684
2022-10-17 23:39:00+00:00,237.8947,13.4,12.01,47.84626,-54.09684
2022-10-17 23:49:00+00:00,236.9664,13.4,12.01,47.84626,-54.09684
2022-10-17 23:59:00+00:00,236.0581,13.4,12.01,47.84626,-54.09684
